TimeCST,TemperatureF,Dew PointF,Humidity,Sea Level PressureIn,VisibilityMPH,Wind Direction,Wind SpeedMPH,Gust SpeedMPH,PrecipitationIn,Events,Conditions,WindDirDegrees,DateUTC
12:53 AM,45.0,32.0,60,30.12,10.0,NNW,3.5,-,N/A,,Clear,340,2012-12-04 06:53:00
1:53 AM,42.1,32.0,67,30.14,10.0,North,3.5,-,N/A,,Partly Cloudy,350,2012-12-04 07:53:00
2:53 AM,42.1,30.9,65,30.16,10.0,NNW,3.5,-,N/A,,Partly Cloudy,340,2012-12-04 08:53:00
3:53 AM,43.0,30.9,62,30.18,10.0,Calm,Calm,-,N/A,,Partly Cloudy,0,2012-12-04 09:53:00
4:53 AM,41.0,30.0,65,30.22,10.0,NNE,4.6,-,N/A,,Partly Cloudy,20,2012-12-04 10:53:00
5:53 AM,36.0,28.0,73,30.24,10.0,NNE,3.5,-,N/A,,Clear,20,2012-12-04 11:53:00
6:53 AM,34.0,27.0,75,30.29,10.0,NNW,4.6,-,N/A,,Clear,340,2012-12-04 12:53:00
7:53 AM,33.1,27.0,78,30.33,10.0,NW,3.5,-,N/A,,Clear,310,2012-12-04 13:53:00
8:53 AM,39.0,28.0,65,30.33,10.0,West,3.5,-,N/A,,Clear,260,2012-12-04 14:53:00
9:53 AM,48.0,25.0,41,30.34,10.0,Calm,Calm,-,N/A,,Clear,0,2012-12-04 15:53:00
10:53 AM,55.0,19.9,25,30.35,10.0,NE,5.8,-,N/A,,Clear,50,2012-12-04 16:53:00
11:53 AM,55.4,17.6,23,30.35,10.0,Variable,3.5,-,N/A,,Clear,0,2012-12-04 17:53:00
12:53 PM,59.0,16.0,19,30.33,10.0,NNW,4.6,-,N/A,,Clear,330,2012-12-04 18:53:00
1:53 PM,61.0,12.9,15,30.31,10.0,Variable,4.6,-,N/A,,Clear,0,2012-12-04 19:53:00
2:53 PM,61.0,12.0,15,30.30,10.0,Calm,Calm,-,N/A,,Clear,0,2012-12-04 20:53:00
3:53 PM,59.0,14.0,17,30.30,10.0,ENE,3.5,-,N/A,,Clear,70,2012-12-04 21:53:00
4:53 PM,57.9,14.0,18,30.30,10.0,Calm,Calm,-,N/A,,Clear,0,2012-12-04 22:53:00
5:53 PM,48.0,15.1,27,30.32,10.0,Calm,Calm,-,N/A,,Clear,0,2012-12-04 23:53:00
6:53 PM,41.0,16.0,36,30.33,10.0,SSE,5.8,-,N/A,,Clear,150,2012-12-05 00:53:00
7:53 PM,39.9,16.0,38,30.34,7.0,South,8.1,-,N/A,,Clear,170,2012-12-05 01:53:00
8:53 PM,37.0,16.0,42,30.34,10.0,SSE,3.5,-,N/A,,Clear,160,2012-12-05 02:53:00
9:53 PM,39.0,16.0,39,30.30,10.0,South,8.1,-,N/A,,Clear,180,2012-12-05 03:53:00
10:53 PM,36.0,16.0,44,30.32,10.0,SSE,8.1,-,N/A,,Clear,160,2012-12-05 04:53:00
11:53 PM,35.1,16.0,46,30.31,10.0,Calm,Calm,-,N/A,,Clear,0,2012-12-05 05:53:00